Time,TemperatureF,DewpointF,PressureIn,WindDirection,WindDirectionDegrees,WindSpeedMPH,WindSpeedGustMPH,Humidity,HourlyPrecipIn,Conditions,Clouds,dailyrainin,SoftwareType,DateUTC
2013-07-14 00:22:00,77.0,75.0,-100.00,South,173,11.0,-999.0,92,0.01,,,-99.99,,2013-07-14 04:22:00,
2013-07-14 00:32:00,77.0,75.0,-100.00,South,173,11.0,-999.0,92,0.01,,,-99.99,,2013-07-14 04:32:00,
2013-07-14 00:42:00,77.0,75.0,-100.00,South,173,11.0,-999.0,92,0.01,,,-99.99,,2013-07-14 04:42:00,
2013-07-14 01:23:00,78.0,75.0,-100.00,SSE,163,10.0,-999.0,90,0.00,,,-99.99,,2013-07-14 05:23:00,
2013-07-14 01:32:00,78.0,75.0,-100.00,SSE,163,10.0,-999.0,90,0.00,,,-99.99,,2013-07-14 05:32:00,
2013-07-14 01:43:00,78.0,75.0,-100.00,SSE,163,10.0,-999.0,90,0.00,,,-99.99,,2013-07-14 05:43:00,
2013-07-14 02:22:00,78.0,75.0,-100.00,ESE,121,8.0,-999.0,90,0.00,,,-99.99,,2013-07-14 06:22:00,
2013-07-14 02:32:00,78.0,75.0,-100.00,ESE,121,8.0,-999.0,90,0.00,,,-99.99,,2013-07-14 06:32:00,
2013-07-14 02:42:00,78.0,75.0,-100.00,ESE,121,8.0,-999.0,90,0.00,,,-99.99,,2013-07-14 06:42:00,
2013-07-14 03:22:00,79.0,75.0,-100.00,SE,129,14.0,-999.0,87,0.03,,,-99.99,,2013-07-14 07:22:00,
2013-07-14 03:33:00,79.0,75.0,-100.00,SE,129,14.0,-999.0,87,0.03,,,-99.99,,2013-07-14 07:33:00,
2013-07-14 03:43:00,79.0,75.0,-100.00,SE,129,14.0,-999.0,87,0.03,,,-99.99,,2013-07-14 07:43:00,
2013-07-14 04:22:00,78.0,74.0,-100.00,SSE,152,11.0,-999.0,87,0.00,,,-99.99,,2013-07-14 08:22:00,
2013-07-14 04:32:00,78.0,74.0,-100.00,SSE,152,11.0,-999.0,87,0.00,,,-99.99,,2013-07-14 08:32:00,
2013-07-14 04:42:00,78.0,74.0,-100.00,SSE,152,11.0,-999.0,87,0.00,,,-99.99,,2013-07-14 08:42:00,
2013-07-14 05:22:00,75.0,73.0,-100.00,SSE,162,17.0,-999.0,92,0.03,,,-99.99,,2013-07-14 09:22:00,
2013-07-14 05:32:00,75.0,73.0,-100.00,SSE,162,17.0,-999.0,92,0.03,,,-99.99,,2013-07-14 09:32:00,
2013-07-14 05:42:00,75.0,73.0,-100.00,SSE,162,17.0,-999.0,92,0.03,,,-99.99,,2013-07-14 09:42:00,
2013-07-14 06:22:00,77.0,73.0,-100.00,SE,126,13.0,-999.0,86,0.00,,,-99.99,,2013-07-14 10:22:00,
2013-07-14 06:32:00,77.0,73.0,-100.00,SE,126,13.0,-999.0,86,0.00,,,-99.99,,2013-07-14 10:32:00,
2013-07-14 06:42:00,77.0,73.0,-100.00,SE,126,13.0,-999.0,86,0.00,,,-99.99,,2013-07-14 10:42:00,
2013-07-14 07:22:00,78.0,72.0,-100.00,ESE,120,14.0,-999.0,83,0.00,,,-99.99,,2013-07-14 11:22:00,
2013-07-14 07:32:00,78.0,72.0,-100.00,ESE,120,14.0,-999.0,83,0.00,,,-99.99,,2013-07-14 11:32:00,
2013-07-14 07:43:00,78.0,72.0,-100.00,ESE,120,14.0,-999.0,83,0.00,,,-99.99,,2013-07-14 11:43:00,
2013-07-14 08:22:00,79.0,74.0,-100.00,ESE,114,12.0,-999.0,84,0.00,,,-99.99,,2013-07-14 12:22:00,
2013-07-14 08:33:00,79.0,74.0,-100.00,ESE,114,12.0,-999.0,84,0.00,,,-99.99,,2013-07-14 12:33:00,
2013-07-14 08:43:00,79.0,74.0,-100.00,ESE,114,12.0,-999.0,84,0.00,,,-99.99,,2013-07-14 12:43:00,
2013-07-14 09:22:00,80.0,76.0,-100.00,ESE,111,13.0,-999.0,87,0.00,,,-99.99,,2013-07-14 13:22:00,
2013-07-14 09:32:00,80.0,76.0,-100.00,ESE,111,13.0,-999.0,87,0.00,,,-99.99,,2013-07-14 13:32:00,
2013-07-14 09:42:00,80.0,76.0,-100.00,ESE,111,13.0,-999.0,87,0.00,,,-99.99,,2013-07-14 13:42:00,
2013-07-14 10:23:00,81.0,76.0,-100.00,ESE,113,13.0,-999.0,85,0.00,,,-99.99,,2013-07-14 14:23:00,
2013-07-14 10:33:00,81.0,76.0,-100.00,ESE,113,13.0,-999.0,85,0.00,,,-99.99,,2013-07-14 14:33:00,
2013-07-14 10:43:00,81.0,76.0,-100.00,ESE,113,13.0,-999.0,85,0.00,,,-99.99,,2013-07-14 14:43:00,
2013-07-14 11:22:00,81.0,76.0,-100.00,ESE,111,13.0,-999.0,83,0.00,,,-99.99,,2013-07-14 15:22:00,
2013-07-14 11:32:00,81.0,76.0,-100.00,ESE,111,13.0,-999.0,83,0.00,,,-99.99,,2013-07-14 15:32:00,
2013-07-14 11:42:00,81.0,76.0,-100.00,ESE,111,13.0,-999.0,83,0.00,,,-99.99,,2013-07-14 15:42:00,
2013-07-14 12:22:00,81.0,75.0,-100.00,ESE,106,14.0,-999.0,80,0.00,,,-99.99,,2013-07-14 16:22:00,
2013-07-14 12:32:00,81.0,75.0,-100.00,ESE,106,14.0,-999.0,80,0.00,,,-99.99,,2013-07-14 16:32:00,
2013-07-14 12:43:00,81.0,75.0,-100.00,ESE,106,14.0,-999.0,80,0.00,,,-99.99,,2013-07-14 16:43:00,
2013-07-14 13:22:00,81.0,75.0,-100.00,ESE,106,13.0,-999.0,82,0.00,,,-99.99,,2013-07-14 17:22:00,
2013-07-14 13:32:00,81.0,75.0,-100.00,ESE,106,13.0,-999.0,82,0.00,,,-99.99,,2013-07-14 17:32:00,
2013-07-14 13:43:00,81.0,75.0,-100.00,ESE,106,13.0,-999.0,82,0.00,,,-99.99,,2013-07-14 17:43:00,
2013-07-14 14:22:00,81.0,76.0,-100.00,East,100,12.0,-999.0,83,0.00,,,-99.99,,2013-07-14 18:22:00,
2013-07-14 14:32:00,81.0,76.0,-100.00,East,100,12.0,-999.0,83,0.00,,,-99.99,,2013-07-14 18:32:00,
2013-07-14 14:42:00,81.0,76.0,-100.00,East,100,12.0,-999.0,83,0.00,,,-99.99,,2013-07-14 18:42:00,
2013-07-14 15:22:00,82.0,76.0,-100.00,ESE,105,13.0,-999.0,83,0.00,,,-99.99,,2013-07-14 19:22:00,
2013-07-14 15:32:00,82.0,76.0,-100.00,ESE,105,13.0,-999.0,83,0.00,,,-99.99,,2013-07-14 19:32:00,
2013-07-14 15:43:00,82.0,76.0,-100.00,ESE,105,13.0,-999.0,83,0.00,,,-99.99,,2013-07-14 19:43:00,
2013-07-14 16:22:00,82.0,77.0,-100.00,East,100,13.0,-999.0,84,0.00,,,-99.99,,2013-07-14 20:22:00,
2013-07-14 16:32:00,82.0,77.0,-100.00,East,100,13.0,-999.0,84,0.00,,,-99.99,,2013-07-14 20:32:00,
2013-07-14 16:43:00,82.0,77.0,-100.00,East,100,13.0,-999.0,84,0.00,,,-99.99,,2013-07-14 20:43:00,
2013-07-14 17:22:00,82.0,76.0,-100.00,ESE,105,14.0,-999.0,83,0.00,,,-99.99,,2013-07-14 21:22:00,
2013-07-14 17:32:00,82.0,76.0,-100.00,ESE,105,14.0,-999.0,83,0.00,,,-99.99,,2013-07-14 21:32:00,
2013-07-14 17:43:00,82.0,76.0,-100.00,ESE,105,14.0,-999.0,83,0.00,,,-99.99,,2013-07-14 21:43:00,
2013-07-14 18:22:00,82.0,76.0,-100.00,ESE,105,13.0,-999.0,83,0.00,,,-99.99,,2013-07-14 22:22:00,
2013-07-14 18:32:00,82.0,76.0,-100.00,ESE,105,13.0,-999.0,83,0.00,,,-99.99,,2013-07-14 22:32:00,
2013-07-14 18:42:00,82.0,76.0,-100.00,ESE,105,13.0,-999.0,83,0.00,,,-99.99,,2013-07-14 22:42:00,
2013-07-14 19:22:00,82.0,76.0,-100.00,ESE,102,13.0,-999.0,82,0.00,,,-99.99,,2013-07-14 23:22:00,
2013-07-14 19:32:00,82.0,76.0,-100.00,ESE,102,13.0,-999.0,82,0.00,,,-99.99,,2013-07-14 23:32:00,
2013-07-14 19:42:00,82.0,76.0,-100.00,ESE,102,13.0,-999.0,82,0.00,,,-99.99,,2013-07-14 23:42:00,
2013-07-14 20:22:00,81.0,76.0,-100.00,East,91,10.0,-999.0,86,0.00,,,-99.99,,2013-07-15 00:22:00,
2013-07-14 20:32:00,81.0,76.0,-100.00,East,91,10.0,-999.0,86,0.00,,,-99.99,,2013-07-15 00:32:00,
2013-07-14 20:43:00,81.0,76.0,-100.00,East,91,10.0,-999.0,86,0.00,,,-99.99,,2013-07-15 00:43:00,
2013-07-14 21:22:00,80.0,76.0,-100.00,East,83,10.0,-999.0,88,0.00,,,-99.99,,2013-07-15 01:22:00,
2013-07-14 21:32:00,80.0,76.0,-100.00,East,83,10.0,-999.0,88,0.00,,,-99.99,,2013-07-15 01:32:00,
2013-07-14 21:43:00,80.0,76.0,-100.00,East,83,10.0,-999.0,88,0.00,,,-99.99,,2013-07-15 01:43:00,
2013-07-14 22:22:00,80.0,76.0,-100.00,East,92,8.0,-999.0,88,0.00,,,-99.99,,2013-07-15 02:22:00,
2013-07-14 22:32:00,80.0,76.0,-100.00,East,92,8.0,-999.0,88,0.00,,,-99.99,,2013-07-15 02:32:00,
2013-07-14 22:42:00,80.0,76.0,-100.00,East,92,8.0,-999.0,88,0.00,,,-99.99,,2013-07-15 02:42:00,
2013-07-14 23:22:00,80.0,77.0,-100.00,East,86,12.0,-999.0,89,0.00,,,-99.99,,2013-07-15 03:22:00,
2013-07-14 23:32:00,80.0,77.0,-100.00,East,86,12.0,-999.0,89,0.00,,,-99.99,,2013-07-15 03:32:00,
2013-07-14 23:43:00,80.0,77.0,-100.00,East,86,12.0,-999.0,89,0.00,,,-99.99,,2013-07-15 03:43:00,